www.pogodaiklimat.ru

Погода и климат >> Архив погоды >> Россия >> Алтайский край >> Ключи


ПОГОДА в Ключах

  • Прогноз погоды в Ключах
  • Монитор погоды в Ключах

АРХИВ ПОГОДЫ в Ключах

Время (UTC), дата Ветер
(напр.,м/с)
 
Видим.   Явления Облачность Т
(С)
Тd
(С)
f
(%)
Тe
(С)
Тes
(С)
Комфортность P
(гПа)
Po
(гПа)
Тmin
(С)
Tmax
(С)
R
(мм)
R24
(мм)
S
(см)
00 18.08 СЗ 2 4000 м дымка {ливн. осадки} 6/0
[Ac As]
+15.9 +14.5 91 +16 +16 1013.5 996.7 +15.9 0.4
03 18.08 С 3 50 км 3/0
[Ac trans]
+19.4 +14.7 74 +21 +25 комфорт 1014.0 997.4
06 18.08 С 5 50 км 4/4 600 м
[Cu med, cong]
+23.7 +13.7 53 +26 +30 жарко 1013.9 997.5
09 18.08 С 3 50 км 3/1 600 м
[Cu med, cong Ci sp]
+25.5 +11.9 43 +27 +34 жарко 1013.8 997.4
12 18.08 СВ 3 50 км 5/0
[Ci sp]
+25.7 +10.2 38 +27 +28 жарко 1014.5 998.2 +26.2
15 18.08 ЮЗ 1 50 км ясно +20.5 +13.8 65 +24 +24 комфорт 1016.3 999.7
18 18.08 З 1 50 км ясно +16.8 +13.2 79 +18 +18 1017.4 1000.5
21 18.08 ЮЗ 1 50 км ясно +14.8 +11.9 83 +15 +15 1017.5 1000.5
00 19.08 штиль 0 50 км ясно +13.3 +11.3 88 +13 +13 1018.2 1001.1 +13.2
03 19.08 ЮЗ 1 50 км 10/0
[Ac und]
+19.8 +13.9 69 +23 +25 комфорт 1018.0 1001.3
06 19.08 ЮЗ 2 50 км 10/0
[Ac und]
+25.7 +14.1 49 +28 +32 жарко 1016.9 1000.6
09 19.08 ЮВ 1 50 км в посл. час ливневой дождь {гроза} 10/1 600 м
[Cb cap Ac cuf]
+22.9 +16.6 68 +28 +31 душно 1016.3 999.8
12 19.08 С 4 50 км {гроза, ливн. осадки} 9/5 600 м
[Cb cap Ac cuf]
+23.3 +15.3 61 +28 +28 душно 1016.6 1000.2 +27.0 6
15 19.08 СЗ 2
{11}
50 км 10/0
[Ac und]
+17.9 +12.9 73 +18 +18 1018.8 1002.0
18 19.08 З 2 50 км 10/0
[Ac und]
+18.0 +13.3 74 +19 +19 1018.4 1001.6
21 19.08 СЗ 3 50 км 10/0
[Ac und]
+16.3 +12.0 76 +16 +16 1018.0 1001.1
00 20.08 СЗ 2 50 км 8/0
[Ac As]
+13.1 +10.4 84 +12 +12 1018.9 1001.8 +13.1
03 20.08 С 4 50 км 3/0
[Ac trans]
+17.5 +9.6 60 +17 +20 1019.6 1002.7
06 20.08 С 4 50 км 3/1 600 м
[Cu hum Ci sp]
+21.1 +5.6 36 +22 +29 комфорт 1019.4 1002.7
09 20.08 З 4 50 км 4/1 600 м
[Cu hum Ci sp]
+23.0 +4.8 31 +23 +29 комфорт 1018.1 1001.6
12 20.08 З 4 50 км 3/1 600 м
[Cu hum Ci sp]
+23.0 +4.1 29 +23 +24 комфорт 1017.4 1000.9 +23.5
15 20.08 ЮЗ 1 50 км 6/0
[Ac trans]
+17.7 +6.7 48 +19 +19 1017.6 1000.8
18 20.08 ЮЗ 1 50 км 3/0
[Ci sp]
+14.8 +5.6 54 +15 +15 1016.5 999.5
21 20.08 ЮЗ 2 50 км 1/0
[Ci fib]
+11.9 +5.9 67 +11 +11 1015.3 998.2
00 21.08 З 3 50 км 1/0
[Ci fib]
+10.8 +6.4 74 +9 +9 1014.6 997.5 +10.7
03 21.08 З 2 50 км 4/0
[Ci]
+16.5 +7.2 54 +17 +22 1014.0 997.1
06 21.08 СЗ 4 50 км 5/3 600 м
[Cu hum Ci sp]
+22.3 +6.2 35 +23 +28 комфорт 1013.0 996.5
09 21.08 З 4 50 км 9/3 600 м
[Cu hum Ac cuf Ci sp]
+23.3 +5.4 31 +23 +26 комфорт 1012.0 995.6
12 21.08 СЗ 3 50 км 8/3 600 м
[Cu hum Ac trans Ci fib]
+22.5 +6.3 35 +23 +24 комфорт 1011.2 994.7 +24.2
15 21.08 В 3 50 км 9/0
[Ac As]
+17.2 +9.2 59 +17 +17 1011.3 994.5
18 21.08 В 1 50 км 10/0
[Ac und]
+16.1 +9.9 67 +17 +17 1010.4 993.6
21 21.08 СВ 4 10 км слаб. ливневой дождь 10/3 600 м
[Cb cap Ac und]
+14.0 +10.9 82 +13 +13 1008.7 991.9
00 22.08 СВ 3 10 км слаб. ливневой дождь 10/4 600 м
[Cb cap Ac cuf]
+13.2 +11.0 87 +12 +12 1009.3 992.3 +13.2 3
03 22.08 СВ 5 20 км слаб. ливневой дождь 10/4 600 м
[Cb cap Ac cuf]
+13.7 +11.7 88 +12 +12 1008.1 991.2 +12.9
06 22.08 СВ 4 50 км {ливн. осадки} 10/10 600 м
[Sc]
+14.8 +12.0 83 +14 +14 1007.8 991.0
09 22.08 СВ 3 50 км 10/10 600 м
[Sc]
+16.4 +11.5 73 +16 +16 1008.3 991.6
12 22.08 СВ 3 50 км 8/1 600 м
[Cb cap Ac cuf Ci sp]
+17.8 +10.5 62 +18 +19 1008.6 991.9 +17.9 5
15 22.08 СЗ 2 50 км 8/0
[Ac cuf Ci sp]
+14.9 +11.0 77 +15 +15 1009.6 992.8
18 22.08 СЗ 4 50 км 4/0
[Ci fib]
+12.8 +9.3 79 +11 +11 1010.2 993.2
21 22.08 З 3 50 км ясно +11.1 +8.2 82 +9 +9 1011.5 994.4
00 23.08 З 3 50 км ясно +9.5 +7.7 89 +7 +7 1013.9 996.6 +9.5
03 23.08 З 4 50 км 4/0
[Ac trans Cc]
+15.9 +10.9 72 +15 +18 1015.5 998.6
06 23.08 СЗ 5 50 км 8/8 600 м
[Cu hum]
+19.7 +11.0 57 +21 +22 комфорт 1015.9 999.2
09 23.08 СЗ 4 50 км 9/9 600 м
[Cb cap]
+21.3 +9.5 47 +23 +23 комфорт 1015.9 999.3
12 23.08 З 3 50 км 3/3 600 м
[Cu hum Ac cuf]
+22.1 +9.8 46 +24 +25 комфорт 1015.6 999.0 +23.4
15 23.08 ЮЗ 2
{12}
50 км 3/0
[Ac cuf]
+17.5 +10.6 64 +18 +18 1017.1 1000.3
18 23.08 З 3 50 км ясно +15.6 +9.6 67 +15 +15 1017.4 1000.4
21 23.08 З 3 50 км ясно +13.9 +9.7 76 +13 +13 1017.5 1000.5
00 24.08 З 2 50 км 6/0
[Ac trans Ci sp]
+12.2 +9.0 81 +11 +11 1018.3 1001.2 +12.2
03 24.08 З 2 50 км ясно +18.8 +11.4 62 +20 +25 1018.8 1002.0
06 24.08 СЗ 4 50 км 8/3 600 м
[Cu hum Cs]
+24.4 +8.1 35 +25 +30 комфорт 1018.8 1002.3
09 24.08 З 5 50 км 8/4 600 м
[Cu med, cong Cs]
+26.0 +6.6 29 +26 +28 жарко 1017.4 1001.0
12 24.08 ЮЗ 2
{10}
50 км 6/3 600 м
[Cu hum Ac trans]
+25.6 +8.8 34 +26 +27 жарко 1016.9 1000.5 +26.2
15 24.08 ЮЗ 2 50 км 3/0
[Ac trans]
+20.0 +9.7 51 +22 +22 комфорт 1017.5 1000.8
18 24.08 ЮЗ 2 50 км ясно +20.3 +9.2 49 +22 +22 комфорт 1016.9 1000.2
21 24.08 ЮЗ 3 50 км 9/0
[Ac As]
+19.7 +8.9 50 +21 +21 комфорт 1016.1 999.4

 

Местоположение метеостанции Ключи (Алтайский край, Россия): широта 52.27 долгота 79.20 высота над уровнем моря 143 м.

В архиве по умолчанию представлена погода в Ключах за последнюю неделю. Архивные данные за месяц целиком и за предыдущие месяцы, начиная с января 2011 года, Вы можете получить, выбрав интересующий диапазон дат из раскрывающегося списка и нажав кнопку "Ввод!".


*Определитесь, кто Вы:
робот инопланетянин человек

Внимание! Время в таблицах - всемирное. Для получения местного времени необходимо прибавить поправку, которая равна 7 ч.

Смотрите также архив погоды в соседних городах и на ближайших метеорологических станциях:

Погода в Кулунде (Алтайский край, Россия) (40 км)
Погода в Шалдае (Павлодарская область, Казахстан) (47 км)
Погода в Шарбакты (Павлодарская область, Казахстан) (60 км)
Погода в Родино (Алтайский край, Россия) (71 км)
Погода в Благовещенке (Алтайский край, Россия) (71 км)
Погода в Волчихе (Алтайский край, Россия) (82 км)
Погода в Славгороде (Алтайский край, Россия) (86 км)
Погода в Угловском (Алтайский край, Россия) (121 км)
Погода в Красноармейке (Павлодарская область, Казахстан) (125 км)
Погода в Акку (Павлодарская область, Казахстан) (132 км)

Пояснения к столбцам:

Ветер - указаны скорость ветра в м/с - средняя за 10 мин, порывы в срок и между сроками (в фигурных скобках) и направление, откуда дует ветер: С - северный, СВ - северо-восточный, В - восточный, ЮВ - юго-восточный, Ю - южный, ЮЗ - юго-западный, З - западный, СЗ - северо-западный.
Видимость - горизонтальная дальность видимости в метрах или километрах. При видимости от 1 до 10 км при отсутствии осадков обычно наблюдается дымка, при ухудшении видимости до 1 км и менее - туман. В сухую погоду видимость может ухудшаться дымом, пылью или мглою.
Явления - указаны атмосферные явления, наблюдавшиеся в срок или в последний час перед сроком; фигурными скобками обозначены явления, наблюдавшиеся между сроками (за 1-3 часа до срока); квадратными скобками обозначены град или гололедные отложения с указанием их диаметра в мм.
Облачность - указаны через наклонную черту общая и нижняя облачность в баллах и высота нижней границы облаков в метрах; квадратными скобками обозначены формы облаков: Ci - перистые, Cs - перисто-слоистые, Cc - перисто-кучевые, Ac - высококучевые, As - высокослоистые, Sc - слоисто-кучевые, Ns - слоисто-дождевые, Cu - кучевые, Cb - кучево-дождевые. Подробнее классификацию облаков см. в Атласе облаков (PDF).
T - Температура воздуха - температура, измеренная на высоте 2 м над землей.
Td - Температура точки росы - температура, при понижении до которой содержащийся в воздухе водяной пар достигнет насыщения.
f - Относительная влажность воздуха - влажноcть воздуха, измеренная на высоте 2 м над землей.
Te - Эффективная температура - температура, которую ощущает одетый по сезону человек в тени. Характеристика душности погоды. При расчете учитывается влияние влажности воздуха и скорости ветра на теплоощущения человека.
Tes - Эффективная температура на солнце - температура, которую ощущает человек, с поправкой на солнечный нагрев. Характеристика знойности погоды. Зависит от высоты солнца над горизонтом, облачности и скорости ветра. Ночью, в пасмурную погоду, а также при ветре 12 м/с и более поправка равна нулю.
P - Атмосферное давление - приведенное к уровню моря атмосферное давление.
Po - Атмосферное давление - измеренное на уровне метеостанции атмосферное давление.
Tmin - Минимальная температура - минимум температуры воздуха на высоте 2 м над землей.
Tmax - Максимальная температура - максимум температуры воздуха на высоте 2 м над землей.
R - Количество осадков - Количество выпавших осадков за период времени, мм. При наведении курсора мыши на число - период времени, за который выпало указанное количество осадков.
R24 - Количество осадков - Количество выпавших осадков за 24 часа, мм.
S - Снежный покров - Высота снежного покрова, см. При наведении курсора мыши на число - состояние снежного покрова и степень покрытия местности в баллах.